Chrysopouli, Greece

12:11 PM EEST on August 20, 2017 (GMT +0300)
Megas Alexandros

Weather History for LGKV - October, 2011

Change the Weather History Date:

Thursday, October 6, 2011

  Actual Average Record
Temperature  
Mean Temperature 64 °F -  
Max Temperature 78 °F 71 °F 80 °F (2012)
Min Temperature 51 °F 55 °F 42 °F (2013)
Growing Degree Days 14 (Base 50)    
Moisture  
Dew Point 54 °F    
Average Humidity 69    
Maximum Humidity 94    
Minimum Humidity 30    
Precipitation  
Precipitation 0.00 in - - ()
Sea Level Pressure  
Sea Level Pressure 30.06 in    
Wind  
Wind Speed 2 mph ()    
Max Wind Speed 8 mph    
Max Gust Speed -    
Visibility 6.2 miles    
Events      
Averages and records for this station are not official NWS values.
T = Trace of Precipitation, MM = Missing Value Source: Averaged Metar Reports

Daily Weather History Graph

Daily Weather History Graph

Search for Another Location

Airport or City:

Trip Planner

Search our weather history database for the weather conditions in past years. The results will help you decide how hot, cold, wet, or windy it might be!

Date:

Astronomy

Oct. 06, 2011 Rise Set
Actual Time 7:22 AM EEST 6:56 PM EEST
Civil Twilight 6:55 AM EEST 7:23 PM EEST
Nautical Twilight 6:23 AM EEST 7:55 PM EEST
Astronomical Twilight 5:51 AM EEST 8:27 PM EEST
Moon 4:01 PM EEST (10/6) 1:49 AM EEST (10/6)
Length of Visible Light 12h 28m
Length of Day
11h 33m
Waxing Gibbous, 72% of the Moon is Illuminated
Oct 6
Waxing Gibbous
Oct 12
Full
Oct 20
Last Quarter
Oct 26
New
Nov 2
First Quarter

Hourly Weather History & Observations

Time (EEST) Temp. Dew Point Humidity Pressure Visibility Wind Dir Wind Speed Gust Speed Precip Events Conditions
12:50 AM 60.8 °F 55.4 °F 82% 30.09 in - Calm Calm - N/A   Clear
1:50 AM 59.0 °F 55.4 °F 88% 30.09 in - Calm Calm - N/A   Clear
2:50 AM 59.0 °F 53.6 °F 82% 30.09 in - East 4.6 mph - N/A   Clear
3:50 AM 57.2 °F 51.8 °F 82% 30.09 in - Calm Calm - N/A   Clear
4:50 AM 57.2 °F 53.6 °F 88% 30.06 in 6.2 mi Calm Calm - N/A   Partly Cloudy
5:20 AM 57.2 °F 50.0 °F 77% 30.06 in 6.2 mi Calm Calm - N/A   Partly Cloudy
5:50 AM 53.6 °F 48.2 °F 82% 30.06 in - Calm Calm - N/A   Clear
6:20 AM 53.6 °F 48.2 °F 82% 30.06 in - Calm Calm - N/A   Clear
6:50 AM 51.8 °F 46.4 °F 82% 30.06 in - Calm Calm - N/A   Clear
7:20 AM 51.8 °F 46.4 °F 82% 30.06 in - Calm Calm - N/A   Clear
7:50 AM 53.6 °F 48.2 °F 82% 30.09 in - Calm Calm - N/A   Clear
8:20 AM 55.4 °F 48.2 °F 77% 30.09 in - Calm Calm - N/A   Clear
8:50 AM 59.0 °F 51.8 °F 77% 30.09 in - Calm Calm - N/A   Clear
9:20 AM 60.8 °F 51.8 °F 72% 30.09 in - Calm Calm - N/A   Clear
9:50 AM 62.6 °F 53.6 °F 72% 30.09 in - Calm Calm - N/A   Clear
10:20 AM 64.4 °F 53.6 °F 68% 30.09 in - Calm Calm - N/A   Clear
10:50 AM 66.2 °F 53.6 °F 64% 30.12 in - Calm Calm - N/A   Clear
11:20 AM 68.0 °F 53.6 °F 60% 30.12 in - Calm Calm - N/A   Clear
11:50 AM 71.6 °F 51.8 °F 50% 30.09 in - Calm Calm - N/A   Clear
12:20 PM 75.2 °F 51.8 °F 44% 30.09 in - Calm Calm - N/A   Clear
12:50 PM 77.0 °F 48.2 °F 36% 30.09 in - ESE 5.8 mph - N/A   Clear
1:20 PM 78.8 °F 48.2 °F 34% 30.09 in - SSE 6.9 mph - N/A   Clear
1:50 PM 78.8 °F 44.6 °F 30% 30.06 in - SSE 6.9 mph - N/A   Clear
2:20 PM 78.8 °F 44.6 °F 30% 30.06 in - SSW 8.1 mph - N/A   Clear
2:50 PM 77.0 °F 48.2 °F 36% 30.04 in - SW 8.1 mph - N/A   Clear
3:20 PM 75.2 °F 48.2 °F 38% 30.04 in - SW 8.1 mph - N/A   Clear
3:50 PM 75.2 °F 53.6 °F 47% 30.04 in - SW 8.1 mph - N/A   Clear
4:20 PM 75.2 °F 53.6 °F 47% 30.04 in - SW 8.1 mph - N/A   Clear
4:50 PM 73.4 °F 57.2 °F 57% 30.04 in - WSW 8.1 mph - N/A   Clear
5:20 PM 73.4 °F 57.2 °F 57% 30.04 in - WSW 6.9 mph - N/A   Clear
5:50 PM 73.4 °F 60.8 °F 65% 30.01 in - SW 8.1 mph - N/A   Clear
6:20 PM 73.4 °F 60.8 °F 65% 30.01 in - SW 6.9 mph - N/A   Clear
6:50 PM 71.6 °F 62.6 °F 73% 30.01 in - WSW 4.6 mph - N/A   Clear
7:20 PM 69.8 °F 62.6 °F 78% 30.01 in - WSW 4.6 mph - N/A   Clear
7:50 PM 68.0 °F 60.8 °F 78% 30.04 in - Calm Calm - N/A   Clear
8:20 PM 66.2 °F 60.8 °F 83% 30.04 in - Calm Calm - N/A   Clear
8:50 PM 64.4 °F 59.0 °F 83% 30.04 in - Calm Calm - N/A   Clear
9:20 PM 62.6 °F 59.0 °F 88% 30.04 in - Calm Calm - N/A   Clear
9:50 PM 62.6 °F 59.0 °F 88% 30.01 in - Calm Calm - N/A   Clear
10:20 PM 60.8 °F 59.0 °F 94% 30.01 in - Calm Calm - N/A   Clear
10:50 PM 60.8 °F 59.0 °F 94% 30.01 in - Calm Calm - N/A   Clear
11:20 PM 60.8 °F 59.0 °F 94% 30.01 in - Calm Calm - N/A   Clear
11:50 PM 59.0 °F 55.4 °F 88% 30.01 in - Calm Calm - N/A   Clear